Retour au catalogue

STARLINK-4439

ActifCommunicationsSSO
NORAD 53498·PAYLOAD·🇺🇸 United States

Lancé Aug 12, 2022 depuis Vandenberg Space Force Base

Loading…

Prochains Passages (prochaines 24 heures)

TLE

FraisSource: CelesTrak SupGP

Époque: Sep 14, 2026, 22:02 UTC

1 53498C 22099AK  26257.91854167 -.00044566  00000+0 -13831-2 0  2575
2 53498  97.2865  15.6177 0001385  95.4048 244.9716 15.33468536    10

Suivez STARLINK-4439 en temps réel avec AllMySat

Download on the App Store